TimeEDT,TemperatureF,Dew PointF,Humidity,Sea Level PressureIn,VisibilityMPH,Wind Direction,Wind SpeedMPH,Gust SpeedMPH,PrecipitationIn,Events,Conditions,WindDirDegrees,DateUTC
12:56 AM,66.0,55.9,70,30.14,10.0,SSE,11.5,-,N/A,,Scattered Clouds,150,2013-04-29 04:56:00
1:56 AM,66.0,54.0,65,30.12,10.0,SSE,10.4,-,N/A,,Mostly Cloudy,160,2013-04-29 05:56:00
4:56 AM,66.0,55.0,68,30.08,10.0,South,9.2,-,0.00,Rain,Light Rain,180,2013-04-29 08:56:00
5:56 AM,63.0,57.0,81,30.08,10.0,SSE,6.9,-,0.01,Rain,Light Rain,150,2013-04-29 09:56:00
6:56 AM,63.0,57.9,84,30.08,10.0,SSE,8.1,-,0.00,,Overcast,150,2013-04-29 10:56:00
7:56 AM,63.0,59.0,87,30.09,3.0,South,8.1,-,0.05,Rain,Rain,180,2013-04-29 11:56:00
8:41 AM,62.6,60.8,94,30.10,2.5,Variable,3.5,-,0.06,Rain,Rain,0,2013-04-29 12:41:00
8:56 AM,62.1,60.1,93,30.09,3.0,SSE,9.2,-,0.11,Rain,Rain,150,2013-04-29 12:56:00
9:18 AM,62.6,60.8,94,30.09,2.5,South,6.9,-,0.07,Rain,Rain,170,2013-04-29 13:18:00
9:47 AM,62.6,60.8,94,30.10,1.8,South,8.1,-,0.23,Rain,Rain,180,2013-04-29 13:47:00
9:56 AM,62.1,61.0,96,30.12,1.5,South,5.8,-,0.30,Rain,Heavy Rain,180,2013-04-29 13:56:00
10:32 AM,62.6,60.8,94,30.11,1.0,South,3.5,-,0.21,Rain,Heavy Rain,170,2013-04-29 14:32:00
10:48 AM,62.6,60.8,94,30.11,1.2,Calm,Calm,-,0.34,Rain,Heavy Rain,0,2013-04-29 14:48:00
10:50 AM,62.6,60.8,94,30.11,0.8,Calm,Calm,-,0.37,Rain,Heavy Rain,0,2013-04-29 14:50:00
10:56 AM,62.1,61.0,96,30.11,0.8,NNW,4.6,-,0.42,Rain,Heavy Rain,340,2013-04-29 14:56:00
11:01 AM,62.6,60.8,94,30.09,1.0,NE,4.6,-,0.04,Rain,Heavy Rain,50,2013-04-29 15:01:00
11:16 AM,62.6,60.8,94,30.10,3.0,East,8.1,-,0.09,Rain,Light Rain,100,2013-04-29 15:16:00
11:40 AM,62.6,60.8,94,30.10,5.0,Calm,Calm,-,0.11,Rain,Light Rain,0,2013-04-29 15:40:00
11:47 AM,62.6,60.8,94,30.10,5.0,NE,3.5,-,0.11,Rain,Light Rain,50,2013-04-29 15:47:00
11:56 AM,63.0,61.0,93,30.10,2.0,North,4.6,-,0.15,Rain,Rain,350,2013-04-29 15:56:00
12:02 PM,62.6,60.8,94,30.09,1.0,NNW,5.8,-,0.08,Rain,Heavy Rain,340,2013-04-29 16:02:00
12:34 PM,62.6,60.8,94,30.08,3.0,East,9.2,-,0.31,Rain,Light Rain,80,2013-04-29 16:34:00
12:56 PM,63.0,62.1,97,30.06,7.0,ESE,13.8,-,0.31,Rain,Light Rain,110,2013-04-29 16:56:00
1:27 PM,64.4,62.6,94,30.04,8.0,ESE,12.7,-,0.00,,Mostly Cloudy,120,2013-04-29 17:27:00
1:35 PM,66.2,62.6,88,30.05,6.0,ESE,8.1,-,0.00,,Overcast,120,2013-04-29 17:35:00
2:19 PM,66.2,64.4,94,30.04,9.0,SE,8.1,-,N/A,,Overcast,140,2013-04-29 18:19:00
2:56 PM,66.9,63.0,87,30.04,10.0,SSE,6.9,-,N/A,,Overcast,150,2013-04-29 18:56:00
3:03 PM,66.2,62.6,88,30.03,10.0,SE,5.8,-,N/A,,Overcast,130,2013-04-29 19:03:00
3:47 PM,66.2,62.6,88,30.01,10.0,East,5.8,-,N/A,,Overcast,100,2013-04-29 19:47:00
3:56 PM,66.9,62.1,84,30.02,10.0,East,4.6,-,N/A,,Overcast,100,2013-04-29 19:56:00
4:03 PM,66.2,62.6,88,30.01,10.0,East,4.6,-,N/A,,Overcast,100,2013-04-29 20:03:00
4:45 PM,68.0,62.6,83,29.99,10.0,East,3.5,-,N/A,,Scattered Clouds,90,2013-04-29 20:45:00
4:56 PM,68.0,62.1,81,30.00,10.0,East,4.6,-,N/A,,Mostly Cloudy,100,2013-04-29 20:56:00
6:36 PM,66.2,62.6,88,30.01,10.0,SSE,5.8,-,N/A,,Overcast,150,2013-04-29 22:36:00
6:56 PM,66.0,62.1,87,30.03,10.0,SSW,4.6,-,0.00,Rain,Light Rain,200,2013-04-29 22:56:00
7:11 PM,66.2,62.6,88,30.03,9.0,WSW,5.8,-,0.00,Rain,Light Rain,240,2013-04-29 23:11:00
7:28 PM,64.4,62.6,94,30.02,5.0,Calm,Calm,-,0.02,Rain,Light Rain,0,2013-04-29 23:28:00
7:56 PM,64.0,62.1,93,30.03,10.0,South,5.8,-,0.03,Rain,Light Rain,180,2013-04-29 23:56:00
8:56 PM,64.0,62.1,93,30.04,10.0,SW,4.6,-,0.01,Rain,Light Rain,230,2013-04-30 00:56:00
10:56 PM,63.0,62.1,97,30.02,10.0,South,3.5,-,N/A,,Mostly Cloudy,180,2013-04-30 02:56:00